datetime,flow
1933-10-01,124.0
1933-10-02,124.0
1933-10-03,124.0
1933-10-04,113.0
1933-10-05,113.0
1933-10-06,103.0
1933-10-07,103.0
1933-10-08,103.0
1933-10-09,106.0
1933-10-10,106.0
1933-10-11,96.0
1933-10-12,96.0
1933-10-13,96.0
1933-10-14,103.0
1933-10-15,106.0
1933-10-16,106.0
1933-10-17,106.0
1933-10-18,106.0
1933-10-19,106.0
1933-10-20,106.0
1933-10-21,106.0
1933-10-22,106.0
1933-10-23,106.0
1933-10-24,117.0
1933-10-25,117.0
1933-10-26,117.0
1933-10-27,117.0
1933-10-28,128.0
1933-10-29,128.0
1933-10-30,134.0
1933-10-31,136.0
1933-11-01,136.0
1933-11-02,136.0
1933-11-03,134.0
1933-11-04,132.0
1933-11-05,132.0
1933-11-06,132.0
1933-11-07,132.0
1933-11-08,132.0
1933-11-09,132.0
1933-11-10,132.0
1933-11-11,132.0
1933-11-12,132.0
1933-11-13,132.0
1933-11-14,132.0
1933-11-15,132.0
1933-11-16,132.0
1933-11-17,132.0
1933-11-18,132.0
1933-11-19,132.0
1933-11-20,132.0
1933-11-21,132.0
1933-11-22,130.0
1933-11-23,130.0
1933-11-24,130.0
1933-11-25,128.0
1933-11-26,128.0
1933-11-27,126.0
1933-11-28,124.0
1933-11-29,122.0
1933-11-30,122.0
1933-12-01,122.0
1933-12-02,124.0
1933-12-03,130.0
1933-12-04,128.0
1933-12-05,126.0
1933-12-06,126.0
1933-12-07,140.0
1933-12-08,138.0
1933-12-09,136.0
1933-12-10,134.0
1933-12-11,136.0
1933-12-12,144.0
1933-12-13,144.0
1933-12-14,144.0
1933-12-15,146.0
1933-12-16,140.0
1933-12-17,134.0
1933-12-18,132.0
1933-12-19,130.0
1933-12-20,128.0
1933-12-21,128.0
1933-12-22,130.0
1933-12-23,132.0
1933-12-24,132.0
1933-12-25,132.0
1933-12-26,132.0
1933-12-27,134.0
1933-12-28,134.0
1933-12-29,134.0
1933-12-30,140.0
1933-12-31,148.0
1934-01-01,146.0
1934-01-02,148.0
1934-01-03,164.0
1934-01-04,159.0
1934-01-05,153.0
1934-01-06,146.0
1934-01-07,144.0
1934-01-08,142.0
1934-01-09,140.0
1934-01-10,140.0
1934-01-11,138.0
1934-01-12,138.0
1934-01-13,138.0
1934-01-14,144.0
1934-01-15,146.0
1934-01-16,142.0
1934-01-17,140.0
1934-01-18,140.0
1934-01-19,142.0
1934-01-20,146.0
1934-01-21,146.0
1934-01-22,146.0
1934-01-23,148.0
1934-01-24,150.0
1934-01-25,146.0
1934-01-26,142.0
1934-01-27,142.0
1934-01-28,142.0
1934-01-29,142.0
1934-01-30,142.0
1934-01-31,140.0
1934-02-01,140.0
1934-02-02,140.0
1934-02-03,140.0
1934-02-04,140.0
1934-02-05,138.0
1934-02-06,138.0
1934-02-07,136.0
1934-02-08,132.0
1934-02-09,134.0
1934-02-10,136.0
1934-02-11,134.0
1934-02-12,134.0
1934-02-13,132.0
1934-02-14,130.0
1934-02-15,130.0
1934-02-16,128.0
1934-02-17,128.0
1934-02-18,130.0
1934-02-19,130.0
1934-02-20,130.0
1934-02-21,132.0
1934-02-22,132.0
1934-02-23,132.0
1934-02-24,132.0
1934-02-25,130.0
1934-02-26,130.0
1934-02-27,130.0
1934-02-28,134.0
1934-03-01,132.0
1934-03-02,132.0
1934-03-03,130.0
1934-03-04,130.0
1934-03-05,128.0
1934-03-06,134.0
1934-03-07,136.0
1934-03-08,132.0
1934-03-09,130.0
1934-03-10,124.0
1934-03-11,124.0
1934-03-12,126.0
1934-03-13,113.0
1934-03-14,100.0
1934-03-15,100.0
1934-03-16,96.0
1934-03-17,100.0
1934-03-18,82.0
1934-03-19,82.0
1934-03-20,47.0
1934-03-21,57.0
1934-03-22,45.0
1934-03-23,42.0
1934-03-24,41.0
1934-03-25,41.0
1934-03-26,43.0
1934-03-27,42.0
1934-03-28,93.0
1934-03-29,132.0
1934-03-30,128.0
1934-03-31,124.0
1934-04-01,115.0
1934-04-02,105.0
1934-04-03,94.0
1934-04-04,88.0
1934-04-05,60.0
1934-04-06,63.0
1934-04-07,61.0
1934-04-08,51.0
1934-04-09,41.0
1934-04-10,33.0
1934-04-11,34.0
1934-04-12,24.0
1934-04-13,18.0
1934-04-14,15.0
1934-04-15,15.0
1934-04-16,17.0
1934-04-17,15.0
1934-04-18,11.0
1934-04-19,8.0
1934-04-20,8.5
1934-04-21,8.0
1934-04-22,16.0
1934-04-23,18.0
1934-04-24,22.0
1934-04-25,24.0
1934-04-26,24.0
1934-04-27,29.0
1934-04-28,24.0
1934-04-29,22.0
1934-04-30,28.0
1934-05-01,62.0
1934-05-02,72.0
1934-05-03,79.0
1934-05-04,78.0
1934-05-05,82.0
1934-05-06,48.0
1934-05-07,44.0
1934-05-08,45.0
1934-05-09,46.0
1934-05-10,48.0
1934-05-11,43.0
1934-05-12,29.0
1934-05-13,27.0
1934-05-14,23.0
1934-05-15,21.0
1934-05-16,19.0
1934-05-17,20.0
1934-05-18,12.0
1934-05-19,13.0
1934-05-20,13.0
1934-05-21,14.0
1934-05-22,16.0
1934-05-23,15.0
1934-05-24,14.0
1934-05-25,14.0
1934-05-26,13.0
1934-05-27,35.0
1934-05-28,46.0
1934-05-29,58.0
1934-05-30,78.0
1934-05-31,80.0
1934-06-01,49.0
1934-06-02,44.0
1934-06-03,32.0
1934-06-04,27.0
1934-06-05,30.0
1934-06-06,66.0
1934-06-07,50.0
1934-06-08,60.0
1934-06-09,73.0
1934-06-10,84.0
1934-06-11,68.0
1934-06-12,41.0
1934-06-13,36.0
1934-06-14,32.0
1934-06-15,20.0
1934-06-16,17.0
1934-06-17,16.0
1934-06-18,23.0
1934-06-19,12.0
1934-06-20,27.0
1934-06-21,32.0
1934-06-22,24.0
1934-06-23,27.0
1934-06-24,24.0
1934-06-25,34.0
1934-06-26,32.0
1934-06-27,26.0
1934-06-28,25.0
1934-06-29,24.0
1934-06-30,22.0
1934-07-01,17.0
1934-07-02,20.0
1934-07-03,41.0
1934-07-04,29.0
1934-07-05,25.0
1934-07-06,17.0
1934-07-07,20.0
1934-07-08,30.0
1934-07-09,18.0
1934-07-10,17.0
1934-07-11,23.0
1934-07-12,29.0
1934-07-13,34.0
1934-07-14,29.0
1934-07-15,26.0
1934-07-16,12.0
1934-07-17,14.0
1934-07-18,18.0
1934-07-19,17.0
1934-07-20,13.0
1934-07-21,11.0
1934-07-22,8.5
1934-07-23,8.0
1934-07-24,8.5
1934-07-25,8.0
1934-07-26,6.5
1934-07-27,11.0
1934-07-28,20.0
1934-07-29,16.0
1934-07-30,11.0
1934-07-31,10.0
1934-08-01,11.0
1934-08-02,12.0
1934-08-03,11.0
1934-08-04,9.5
1934-08-05,9.0
1934-08-06,11.0
1934-08-07,8.0
1934-08-08,8.5
1934-08-09,9.5
1934-08-10,9.0
1934-08-11,7.5
1934-08-12,8.0
1934-08-13,11.0
1934-08-14,18.0
1934-08-15,16.0
1934-08-16,11.0
1934-08-17,12.0
1934-08-18,20.0
1934-08-19,18.0
1934-08-20,18.0
1934-08-21,13.0
1934-08-22,12.0
1934-08-23,10.0
1934-08-24,11.0
1934-08-25,18.0
1934-08-26,18.0
1934-08-27,15.0
1934-08-28,20.0
1934-08-29,29.0
1934-08-30,22.0
1934-08-31,22.0
1934-09-01,28.0
1934-09-02,50.0
1934-09-03,50.0
1934-09-04,25.0
1934-09-05,22.0
1934-09-06,27.0
1934-09-07,26.0
1934-09-08,22.0
1934-09-09,18.0
1934-09-10,16.0
1934-09-11,18.0
1934-09-12,20.0
1934-09-13,19.0
1934-09-14,13.0
1934-09-15,15.0
1934-09-16,18.0
1934-09-17,22.0
1934-09-18,32.0
1934-09-19,37.0
1934-09-20,47.0
1934-09-21,54.0
1934-09-22,51.0
1934-09-23,52.0
1934-09-24,63.0
1934-09-25,73.0
1934-09-26,76.0
1934-09-27,78.0
1934-09-28,85.0
1934-09-29,94.0
1934-09-30,94.0
1934-10-01,95.0
1934-10-02,95.0
1934-10-03,94.0
1934-10-04,95.0
1934-10-05,97.0
1934-10-06,98.0
1934-10-07,102.0
1934-10-08,102.0
1934-10-09,102.0
1934-10-10,102.0
1934-10-11,100.0
1934-10-12,102.0
1934-10-13,100.0
1934-10-14,102.0
1934-10-15,106.0
1934-10-16,108.0
1934-10-17,110.0
1934-10-18,110.0
1934-10-19,106.0
1934-10-20,108.0
1934-10-21,126.0
1934-10-22,133.0
1934-10-23,128.0
1934-10-24,124.0
1934-10-25,124.0
1934-10-26,126.0
1934-10-27,122.0
1934-10-28,122.0
1934-10-29,124.0
1934-10-30,122.0
1934-10-31,120.0
1934-11-01,120.0
1934-11-02,120.0
1934-11-03,131.0
1934-11-04,131.0
1934-11-05,128.0
1934-11-06,122.0
1934-11-07,120.0
1934-11-08,118.0
1934-11-09,118.0
1934-11-10,118.0
1934-11-11,118.0
1934-11-12,118.0
1934-11-13,118.0
1934-11-14,120.0
1934-11-15,131.0
1934-11-16,149.0
1934-11-17,151.0
1934-11-18,151.0
1934-11-19,149.0
1934-11-20,141.0
1934-11-21,136.0
1934-11-22,133.0
1934-11-23,133.0
1934-11-24,138.0
1934-11-25,136.0
1934-11-26,136.0
1934-11-27,146.0
1934-11-28,149.0
1934-11-29,161.0
1934-11-30,171.0
1934-12-01,157.0
1934-12-02,149.0
1934-12-03,144.0
1934-12-04,138.0
1934-12-05,138.0
1934-12-06,136.0
1934-12-07,133.0
1934-12-08,131.0
1934-12-09,128.0
1934-12-10,126.0
1934-12-11,126.0
1934-12-12,126.0
1934-12-13,133.0
1934-12-14,161.0
1934-12-15,174.0
1934-12-16,164.0
1934-12-17,168.0
1934-12-18,157.0
1934-12-19,154.0
1934-12-20,154.0
1934-12-21,161.0
1934-12-22,151.0
1934-12-23,141.0
1934-12-24,138.0
1934-12-25,136.0
1934-12-26,144.0
1934-12-27,144.0
1934-12-28,138.0
1934-12-29,141.0
1934-12-30,133.0
1934-12-31,131.0
1935-01-01,124.0
1935-01-02,126.0
1935-01-03,126.0
1935-01-04,149.0
1935-01-05,151.0
1935-01-06,157.0
1935-01-07,232.0
1935-01-08,256.0
1935-01-09,206.0
1935-01-10,181.0
1935-01-11,171.0
1935-01-12,161.0
1935-01-13,161.0
1935-01-14,161.0
1935-01-15,161.0
1935-01-16,157.0
1935-01-17,164.0
1935-01-18,171.0
1935-01-19,161.0
1935-01-20,151.0
1935-01-21,149.0
1935-01-22,149.0
1935-01-23,157.0
1935-01-24,168.0
1935-01-25,171.0
1935-01-26,174.0
1935-01-27,181.0
1935-01-28,185.0
1935-01-29,181.0
1935-01-30,195.0
1935-01-31,178.0
1935-02-01,174.0
1935-02-02,174.0
1935-02-03,171.0
1935-02-04,171.0
1935-02-05,174.0
1935-02-06,195.0
1935-02-07,195.0
1935-02-08,232.0
1935-02-09,228.0
1935-02-10,206.0
1935-02-11,199.0
1935-02-12,202.0
1935-02-13,199.0
1935-02-14,181.0
1935-02-15,171.0
1935-02-16,161.0
1935-02-17,168.0
1935-02-18,171.0
1935-02-19,171.0
1935-02-20,171.0
1935-02-21,171.0
1935-02-22,168.0
1935-02-23,161.0
1935-02-24,164.0
1935-02-25,157.0
1935-02-26,157.0
1935-02-27,154.0
1935-02-28,157.0
1935-03-01,164.0
1935-03-02,164.0
1935-03-03,161.0
1935-03-04,161.0
1935-03-05,157.0
1935-03-06,149.0
1935-03-07,154.0
1935-03-08,149.0
1935-03-09,149.0
1935-03-10,144.0
1935-03-11,141.0
1935-03-12,141.0
1935-03-13,141.0
1935-03-14,141.0
1935-03-15,133.0
1935-03-16,133.0
1935-03-17,133.0
1935-03-18,133.0
1935-03-19,124.0
1935-03-20,122.0
1935-03-21,118.0
1935-03-22,120.0
1935-03-23,118.0
1935-03-24,118.0
1935-03-25,114.0
1935-03-26,112.0
1935-03-27,112.0
1935-03-28,112.0
1935-03-29,112.0
1935-03-30,112.0
1935-03-31,112.0
1935-04-01,102.0
1935-04-02,98.0
1935-04-03,110.0
1935-04-04,106.0
1935-04-05,103.0
1935-04-06,100.0
1935-04-07,161.0
1935-04-08,264.0
1935-04-09,252.0
1935-04-10,217.0
1935-04-11,174.0
1935-04-12,161.0
1935-04-13,124.0
1935-04-14,124.0
1935-04-15,128.0
1935-04-16,149.0
1935-04-17,154.0
1935-04-18,122.0
1935-04-19,106.0
1935-04-20,78.0
1935-04-21,81.0
1935-04-22,75.0
1935-04-23,72.0
1935-04-24,63.0
1935-04-25,47.0
1935-04-26,29.0
1935-04-27,28.0
1935-04-28,27.0
1935-04-29,33.0
1935-04-30,65.0
1935-05-01,88.0
1935-05-02,58.0
1935-05-03,45.0
1935-05-04,37.0
1935-05-05,48.0
1935-05-06,57.0
1935-05-07,53.0
1935-05-08,44.0
1935-05-09,29.0
1935-05-10,24.0
1935-05-11,21.0
1935-05-12,17.0
1935-05-13,20.0
1935-05-14,31.0
1935-05-15,34.0
1935-05-16,38.0
1935-05-17,26.0
1935-05-18,22.0
1935-05-19,23.0
1935-05-20,27.0
1935-05-21,18.0
1935-05-22,14.0
1935-05-23,16.0
1935-05-24,16.0
1935-05-25,21.0
1935-05-26,20.0
1935-05-27,18.0
1935-05-28,16.0
1935-05-29,16.0
1935-05-30,15.0
1935-05-31,18.0
1935-06-01,17.0
1935-06-02,19.0
1935-06-03,23.0
1935-06-04,22.0
1935-06-05,20.0
1935-06-06,27.0
1935-06-07,55.0
1935-06-08,50.0
1935-06-09,30.0
1935-06-10,25.0
1935-06-11,21.0
1935-06-12,17.0
1935-06-13,18.0
1935-06-14,18.0
1935-06-15,18.0
1935-06-16,18.0
1935-06-17,18.0
1935-06-18,16.0
1935-06-19,18.0
1935-06-20,18.0
1935-06-21,18.0
1935-06-22,15.0
1935-06-23,12.0
1935-06-24,12.0
1935-06-25,16.0
1935-06-26,14.0
1935-06-27,13.0
1935-06-28,11.0
1935-06-29,10.0
1935-06-30,9.5
1935-07-01,9.5
1935-07-02,9.5
1935-07-03,7.0
1935-07-04,6.0
1935-07-05,8.5
1935-07-06,9.5
1935-07-07,11.0
1935-07-08,12.0
1935-07-09,13.0
1935-07-10,16.0
1935-07-11,16.0
1935-07-12,15.0
1935-07-13,14.0
1935-07-14,13.0
1935-07-15,15.0
1935-07-16,13.0
1935-07-17,11.0
1935-07-18,9.5
1935-07-19,12.0
1935-07-20,15.0
1935-07-21,13.0
1935-07-22,13.0
1935-07-23,19.0
1935-07-24,16.0
1935-07-25,17.0
1935-07-26,23.0
1935-07-27,15.0
1935-07-28,13.0
1935-07-29,12.0
1935-07-30,11.0
1935-07-31,14.0
1935-08-01,13.0
1935-08-02,11.0
1935-08-03,11.0
1935-08-04,7.0
1935-08-05,8.0
1935-08-06,8.0
1935-08-07,8.5
1935-08-08,10.0
1935-08-09,9.5
1935-08-10,9.5
1935-08-11,8.5
1935-08-12,11.0
1935-08-13,10.0
1935-08-14,9.5
1935-08-15,9.0
1935-08-16,13.0
1935-08-17,11.0
1935-08-18,12.0
1935-08-19,12.0
1935-08-20,13.0
1935-08-21,13.0
1935-08-22,15.0
1935-08-23,16.0
1935-08-24,17.0
1935-08-25,17.0
1935-08-26,16.0
1935-08-27,12.0
1935-08-28,14.0
1935-08-29,38.0
1935-08-30,44.0
1935-08-31,40.0
1935-09-01,37.0
1935-09-02,47.0
1935-09-03,48.0
1935-09-04,42.0
1935-09-05,32.0
1935-09-06,20.0
1935-09-07,19.0
1935-09-08,15.0
1935-09-09,16.0
1935-09-10,14.0
1935-09-11,13.0
1935-09-12,15.0
1935-09-13,16.0
1935-09-14,16.0
1935-09-15,23.0
1935-09-16,41.0
1935-09-17,44.0
1935-09-18,37.0
1935-09-19,32.0
1935-09-20,43.0
1935-09-21,55.0
1935-09-22,63.0
1935-09-23,75.0
1935-09-24,73.0
1935-09-25,70.0
1935-09-26,74.0
1935-09-27,75.0
1935-09-28,73.0
1935-09-29,69.0
1935-09-30,72.0
1935-10-01,77.0
1935-10-02,75.0
1935-10-03,88.0
1935-10-04,92.0
1935-10-05,88.0
1935-10-06,95.0
1935-10-07,108.0
1935-10-08,110.0
1935-10-09,112.0
1935-10-10,112.0
1935-10-11,112.0
1935-10-12,114.0
1935-10-13,122.0
1935-10-14,124.0
1935-10-15,122.0
1935-10-16,120.0
1935-10-17,120.0
1935-10-18,120.0
1935-10-19,120.0
1935-10-20,118.0
1935-10-21,116.0
1935-10-22,116.0
1935-10-23,116.0
1935-10-24,116.0
1935-10-25,110.0
1935-10-26,106.0
1935-10-27,105.0
1935-10-28,105.0
1935-10-29,106.0
1935-10-30,106.0
1935-10-31,108.0
1935-11-01,122.0
1935-11-02,128.0
1935-11-03,128.0
1935-11-04,122.0
1935-11-05,120.0
1935-11-06,120.0
1935-11-07,120.0
1935-11-08,122.0
1935-11-09,122.0
1935-11-10,122.0
1935-11-11,120.0
1935-11-12,120.0
1935-11-13,120.0
1935-11-14,120.0
1935-11-15,118.0
1935-11-16,118.0
1935-11-17,118.0
1935-11-18,120.0
1935-11-19,122.0
1935-11-20,122.0
1935-11-21,124.0
1935-11-22,126.0
1935-11-23,131.0
1935-11-24,128.0
1935-11-25,124.0
1935-11-26,124.0
1935-11-27,124.0
1935-11-28,124.0
1935-11-29,124.0
1935-11-30,124.0
1935-12-01,124.0
1935-12-02,124.0
1935-12-03,124.0
1935-12-04,124.0
1935-12-05,124.0
1935-12-06,124.0
1935-12-07,126.0
1935-12-08,128.0
1935-12-09,128.0
1935-12-10,128.0
1935-12-11,133.0
1935-12-12,138.0
1935-12-13,136.0
1935-12-14,128.0
1935-12-15,126.0
1935-12-16,124.0
1935-12-17,122.0
1935-12-18,124.0
1935-12-19,122.0
1935-12-20,120.0
1935-12-21,118.0
1935-12-22,118.0
1935-12-23,118.0
1935-12-24,120.0
1935-12-25,126.0
1935-12-26,133.0
1935-12-27,149.0
1935-12-28,146.0
1935-12-29,151.0
1935-12-30,146.0
1935-12-31,141.0
1936-01-01,138.0
1936-01-02,260.0
1936-01-03,220.0
1936-01-04,213.0
1936-01-05,193.0
1936-01-06,173.0
1936-01-07,164.0
1936-01-08,176.0
1936-01-09,338.0
1936-01-10,285.0
1936-01-11,456.0
1936-01-12,360.0
1936-01-13,444.0
1936-01-14,524.0
1936-01-15,878.0
1936-01-16,782.0
1936-01-17,524.0
1936-01-18,380.0
1936-01-19,319.0
1936-01-20,281.0
1936-01-21,260.0
1936-01-22,238.0
1936-01-23,227.0
1936-01-24,224.0
1936-01-25,220.0
1936-01-26,213.0
1936-01-27,206.0
1936-01-28,206.0
1936-01-29,200.0
1936-01-30,189.0
1936-01-31,189.0
1936-02-01,186.0
1936-02-02,183.0
1936-02-03,176.0
1936-02-04,173.0
1936-02-05,173.0
1936-02-06,170.0
1936-02-07,167.0
1936-02-08,164.0
1936-02-09,160.0
1936-02-10,160.0
1936-02-11,167.0
1936-02-12,170.0
1936-02-13,164.0
1936-02-14,167.0
1936-02-15,189.0
1936-02-16,200.0
1936-02-17,186.0
1936-02-18,173.0
1936-02-19,170.0
1936-02-20,173.0
1936-02-21,256.0
1936-02-22,341.0
1936-02-23,311.0
1936-02-24,292.0
1936-02-25,270.0
1936-02-26,252.0
1936-02-27,242.0
1936-02-28,234.0
1936-02-29,234.0
1936-03-01,224.0
1936-03-02,227.0
1936-03-03,227.0
1936-03-04,224.0
1936-03-05,220.0
1936-03-06,217.0
1936-03-07,213.0
1936-03-08,210.0
1936-03-09,210.0
1936-03-10,210.0
1936-03-11,200.0
1936-03-12,200.0
1936-03-13,196.0
1936-03-14,193.0
1936-03-15,186.0
1936-03-16,183.0
1936-03-17,180.0
1936-03-18,173.0
1936-03-19,173.0
1936-03-20,173.0
1936-03-21,173.0
1936-03-22,164.0
1936-03-23,151.0
1936-03-24,160.0
1936-03-25,173.0
1936-03-26,167.0
1936-03-27,164.0
1936-03-28,160.0
1936-03-29,154.0
1936-03-30,160.0
1936-03-31,173.0
1936-04-01,189.0
1936-04-02,193.0
1936-04-03,183.0
1936-04-04,170.0
1936-04-05,157.0
1936-04-06,154.0
1936-04-07,144.0
1936-04-08,120.0
1936-04-09,118.0
1936-04-10,110.0
1936-04-11,78.0
1936-04-12,77.0
1936-04-13,79.0
1936-04-14,74.0
1936-04-15,63.0
1936-04-16,63.0
1936-04-17,61.0
1936-04-18,44.0
1936-04-19,48.0
1936-04-20,63.0
1936-04-21,61.0
1936-04-22,53.0
1936-04-23,52.0
1936-04-24,39.0
1936-04-25,41.0
1936-04-26,40.0
1936-04-27,42.0
1936-04-28,47.0
1936-04-29,50.0
1936-04-30,61.0
1936-05-01,66.0
1936-05-02,88.0
1936-05-03,86.0
1936-05-04,84.0
1936-05-05,85.0
1936-05-06,84.0
1936-05-07,84.0
1936-05-08,75.0
1936-05-09,48.0
1936-05-10,48.0
1936-05-11,44.0
1936-05-12,49.0
1936-05-13,49.0
1936-05-14,43.0
1936-05-15,40.0
1936-05-16,25.0
1936-05-17,24.0
1936-05-18,24.0
1936-05-19,23.0
1936-05-20,23.0
1936-05-21,24.0
1936-05-22,20.0
1936-05-23,19.0
1936-05-24,14.0
1936-05-25,22.0
1936-05-26,22.0
1936-05-27,27.0
1936-05-28,33.0
1936-05-29,43.0
1936-05-30,60.0
1936-05-31,82.0
1936-06-01,98.0
1936-06-02,108.0
1936-06-03,97.0
1936-06-04,56.0
1936-06-05,42.0
1936-06-06,52.0
1936-06-07,69.0
1936-06-08,74.0
1936-06-09,85.0
1936-06-10,77.0
1936-06-11,84.0
1936-06-12,82.0
1936-06-13,79.0
1936-06-14,81.0
1936-06-15,79.0
1936-06-16,40.0
1936-06-17,34.0
1936-06-18,29.0
1936-06-19,27.0
1936-06-20,24.0
1936-06-21,20.0
1936-06-22,20.0
1936-06-23,20.0
1936-06-24,17.0
1936-06-25,14.0
1936-06-26,13.0
1936-06-27,12.0
1936-06-28,11.0
1936-06-29,9.5
1936-06-30,12.0
1936-07-01,12.0
1936-07-02,10.0
1936-07-03,17.0
1936-07-04,18.0
1936-07-05,20.0
1936-07-06,12.0
1936-07-07,11.0
1936-07-08,15.0
1936-07-09,17.0
1936-07-10,20.0
1936-07-11,20.0
1936-07-12,17.0
1936-07-13,14.0
1936-07-14,19.0
1936-07-15,22.0
1936-07-16,20.0
1936-07-17,21.0
1936-07-18,24.0
1936-07-19,17.0
1936-07-20,12.0
1936-07-21,11.0
1936-07-22,12.0
1936-07-23,15.0
1936-07-24,13.0
1936-07-25,11.0
1936-07-26,11.0
1936-07-27,17.0
1936-07-28,13.0
1936-07-29,11.0
1936-07-30,10.0
1936-07-31,12.0
1936-08-01,9.5
1936-08-02,7.5
1936-08-03,9.5
1936-08-04,11.0
1936-08-05,20.0
1936-08-06,62.0
1936-08-07,33.0
1936-08-08,15.0
1936-08-09,14.0
1936-08-10,12.0
1936-08-11,12.0
1936-08-12,10.0
1936-08-13,12.0
1936-08-14,12.0
1936-08-15,10.0
1936-08-16,6.5
1936-08-17,9.5
1936-08-18,10.0
1936-08-19,11.0
1936-08-20,8.5
1936-08-21,11.0
1936-08-22,11.0
1936-08-23,9.5
1936-08-24,12.0
1936-08-25,11.0
1936-08-26,10.0
1936-08-27,12.0
1936-08-28,17.0
1936-08-29,16.0
1936-08-30,17.0
1936-08-31,17.0
1936-09-01,19.0
1936-09-02,20.0
1936-09-03,21.0
1936-09-04,24.0
1936-09-05,24.0
1936-09-06,22.0
1936-09-07,37.0
1936-09-08,44.0
1936-09-09,46.0
1936-09-10,30.0
1936-09-11,22.0
1936-09-12,18.0
1936-09-13,15.0
1936-09-14,20.0
1936-09-15,24.0
1936-09-16,25.0
1936-09-17,57.0
1936-09-18,53.0
1936-09-19,32.0
1936-09-20,29.0
1936-09-21,34.0
1936-09-22,44.0
1936-09-23,50.0
1936-09-24,50.0
1936-09-25,65.0
1936-09-26,72.0
1936-09-27,70.0
1936-09-28,73.0
1936-09-29,75.0
1936-09-30,70.0
1936-10-01,73.0
1936-10-02,75.0
1936-10-03,75.0
1936-10-04,84.0
1936-10-05,94.0
1936-10-06,103.0
1936-10-07,102.0
1936-10-08,95.0
1936-10-09,95.0
1936-10-10,100.0
1936-10-11,100.0
1936-10-12,100.0
1936-10-13,102.0
1936-10-14,100.0
1936-10-15,102.0
1936-10-16,105.0
1936-10-17,108.0
1936-10-18,108.0
1936-10-19,105.0
1936-10-20,106.0
1936-10-21,106.0
1936-10-22,106.0
1936-10-23,108.0
1936-10-24,108.0
1936-10-25,108.0
1936-10-26,106.0
1936-10-27,102.0
1936-10-28,110.0
1936-10-29,108.0
1936-10-30,114.0
1936-10-31,116.0
1936-11-01,110.0
1936-11-02,112.0
1936-11-03,114.0
1936-11-04,114.0
1936-11-05,116.0
1936-11-06,116.0
1936-11-07,114.0
1936-11-08,112.0
1936-11-09,114.0
1936-11-10,114.0
1936-11-11,114.0
1936-11-12,114.0
1936-11-13,114.0
1936-11-14,112.0
1936-11-15,118.0
1936-11-16,118.0
1936-11-17,118.0
1936-11-18,118.0
1936-11-19,120.0
1936-11-20,120.0
1936-11-21,120.0
1936-11-22,120.0
1936-11-23,120.0
1936-11-24,120.0
1936-11-25,120.0
1936-11-26,120.0
1936-11-27,120.0
1936-11-28,120.0
1936-11-29,120.0
1936-11-30,120.0
1936-12-01,120.0
1936-12-02,126.0
1936-12-03,124.0
1936-12-04,122.0
1936-12-05,122.0
1936-12-06,124.0
1936-12-07,124.0
1936-12-08,124.0
1936-12-09,114.0
1936-12-10,105.0
1936-12-11,108.0
1936-12-12,114.0
1936-12-13,116.0
1936-12-14,116.0
1936-12-15,118.0
1936-12-16,118.0
1936-12-17,120.0
1936-12-18,120.0
1936-12-19,120.0
1936-12-20,122.0
1936-12-21,122.0
1936-12-22,122.0
1936-12-23,124.0
1936-12-24,126.0
1936-12-25,124.0
1936-12-26,128.0
1936-12-27,124.0
1936-12-28,122.0
1936-12-29,120.0
1936-12-30,122.0
1936-12-31,122.0
1937-01-01,122.0
1937-01-02,120.0
1937-01-03,118.0
1937-01-04,118.0
1937-01-05,116.0
1937-01-06,114.0
1937-01-07,112.0
1937-01-08,112.0
1937-01-09,110.0
1937-01-10,110.0
1937-01-11,108.0
1937-01-12,108.0
1937-01-13,108.0
1937-01-14,108.0
1937-01-15,108.0
1937-01-16,108.0
1937-01-17,108.0
1937-01-18,108.0
1937-01-19,108.0
1937-01-20,106.0
1937-01-21,100.0
1937-01-22,108.0
1937-01-23,108.0
1937-01-24,108.0
1937-01-25,108.0
1937-01-26,108.0
1937-01-27,108.0
1937-01-28,108.0
1937-01-29,108.0
1937-01-30,108.0
1937-01-31,110.0
1937-02-01,112.0
1937-02-02,114.0
1937-02-03,122.0
1937-02-04,158.0
1937-02-05,172.0
1937-02-06,158.0
1937-02-07,145.0
1937-02-08,133.0
1937-02-09,130.0
1937-02-10,130.0
1937-02-11,138.0
1937-02-12,189.0
1937-02-13,204.0
1937-02-14,186.0
1937-02-15,172.0
1937-02-16,166.0
1937-02-17,177.0
1937-02-18,216.0
1937-02-19,210.0
1937-02-20,195.0
1937-02-21,186.0
1937-02-22,189.0
1937-02-23,192.0
1937-02-24,216.0
1937-02-25,216.0
1937-02-26,198.0
1937-02-27,183.0
1937-02-28,169.0
1937-03-01,166.0
1937-03-02,177.0
1937-03-03,174.0
1937-03-04,172.0
1937-03-05,166.0
1937-03-06,169.0
1937-03-07,172.0
1937-03-08,169.0
1937-03-09,180.0
1937-03-10,192.0
1937-03-11,183.0
1937-03-12,177.0
1937-03-13,169.0
1937-03-14,160.0
1937-03-15,140.0
1937-03-16,135.0
1937-03-17,133.0
1937-03-18,135.0
1937-03-19,135.0
1937-03-20,133.0
1937-03-21,140.0
1937-03-22,174.0
1937-03-23,222.0
1937-03-24,288.0
1937-03-25,285.0
1937-03-26,285.0
1937-03-27,259.0
1937-03-28,256.0
1937-03-29,240.0
1937-03-30,219.0
1937-03-31,207.0
1937-04-01,210.0
1937-04-02,240.0
1937-04-03,225.0
1937-04-04,180.0
1937-04-05,158.0
1937-04-06,158.0
1937-04-07,166.0
1937-04-08,122.0
1937-04-09,124.0
1937-04-10,122.0
1937-04-11,116.0
1937-04-12,120.0
1937-04-13,177.0
1937-04-14,392.0
1937-04-15,442.0
1937-04-16,365.0
1937-04-17,272.0
1937-04-18,240.0
1937-04-19,234.0
1937-04-20,225.0
1937-04-21,204.0
1937-04-22,145.0
1937-04-23,130.0
1937-04-24,124.0
1937-04-25,122.0
1937-04-26,124.0
1937-04-27,120.0
1937-04-28,118.0
1937-04-29,110.0
1937-04-30,100.0
1937-05-01,89.0
1937-05-02,73.0
1937-05-03,63.0
1937-05-04,62.0
1937-05-05,57.0
1937-05-06,40.0
1937-05-07,49.0
1937-05-08,45.0
1937-05-09,44.0
1937-05-10,34.0
1937-05-11,26.0
1937-05-12,20.0
1937-05-13,18.0
1937-05-14,24.0
1937-05-15,25.0
1937-05-16,22.0
1937-05-17,20.0
1937-05-18,35.0
1937-05-19,78.0
1937-05-20,118.0
1937-05-21,110.0
1937-05-22,53.0
1937-05-23,38.0
1937-05-24,37.0
1937-05-25,32.0
1937-05-26,32.0
1937-05-27,29.0
1937-05-28,27.0
1937-05-29,26.0
1937-05-30,24.0
1937-05-31,25.0
1937-06-01,23.0
1937-06-02,28.0
1937-06-03,23.0
1937-06-04,22.0
1937-06-05,18.0
1937-06-06,22.0
1937-06-07,22.0
1937-06-08,28.0
1937-06-09,66.0
1937-06-10,97.0
1937-06-11,110.0
1937-06-12,120.0
1937-06-13,122.0
1937-06-14,106.0
1937-06-15,106.0
1937-06-16,135.0
1937-06-17,147.0
1937-06-18,152.0
1937-06-19,152.0
1937-06-20,147.0
1937-06-21,130.0
1937-06-22,97.0
1937-06-23,52.0
1937-06-24,45.0
1937-06-25,36.0
1937-06-26,35.0
1937-06-27,29.0
1937-06-28,23.0
1937-06-29,29.0
1937-06-30,30.0
1937-07-01,29.0
1937-07-02,23.0
1937-07-03,25.0
1937-07-04,25.0
1937-07-05,26.0
1937-07-06,27.0
1937-07-07,20.0
1937-07-08,26.0
1937-07-09,17.0
1937-07-10,15.0
1937-07-11,13.0
1937-07-12,11.0
1937-07-13,8.5
1937-07-14,6.5
1937-07-15,6.0
1937-07-16,9.5
1937-07-17,9.5
1937-07-18,11.0
1937-07-19,12.0
1937-07-20,8.0
1937-07-21,10.0
1937-07-22,7.0
1937-07-23,6.0
1937-07-24,12.0
1937-07-25,17.0
1937-07-26,33.0
1937-07-27,25.0
1937-07-28,17.0
1937-07-29,15.0
1937-07-30,14.0
1937-07-31,16.0
1937-08-01,12.0
1937-08-02,12.0
1937-08-03,13.0
1937-08-04,13.0
1937-08-05,12.0
1937-08-06,15.0
1937-08-07,16.0
1937-08-08,18.0
1937-08-09,20.0
1937-08-10,11.0
1937-08-11,12.0
1937-08-12,12.0
1937-08-13,12.0
1937-08-14,10.0
1937-08-15,13.0
1937-08-16,11.0
1937-08-17,9.0
1937-08-18,8.0
1937-08-19,13.0
1937-08-20,12.0
1937-08-21,11.0
1937-08-22,7.5
1937-08-23,7.5
1937-08-24,17.0
1937-08-25,14.0
1937-08-26,18.0
1937-08-27,17.0
1937-08-28,12.0
1937-08-29,11.0
1937-08-30,18.0
1937-08-31,35.0
1937-09-01,34.0
1937-09-02,34.0
1937-09-03,37.0
1937-09-04,31.0
1937-09-05,22.0
1937-09-06,29.0
1937-09-07,32.0
1937-09-08,31.0
1937-09-09,23.0
1937-09-10,18.0
1937-09-11,16.0
1937-09-12,16.0
1937-09-13,18.0
1937-09-14,17.0
1937-09-15,23.0
1937-09-16,21.0
1937-09-17,32.0
1937-09-18,38.0
1937-09-19,46.0
1937-09-20,68.0
1937-09-21,79.0
1937-09-22,70.0
1937-09-23,65.0